Flag for France Weather past 2 weeks in Rouen, France

Now
36 °F

Clear.


Feels Like: 30 °F
Forecast: 33 / 53 °F
Wind: 7 mph from Northwest

Location: Rouen Airport

Current Time: Feb 27, 2015 at 7:36:20 AM

Latest Report: Feb 27, 2015 at 7:00 AM


Visibility: N/A

Pressure: 30.07 "Hg

Humidity: 87%

Dew point: 32 °F

Location of RouenLocation

Historic Weather in Rouen — Graph

°F

Rouen temperature yesterday

Maximum temperature yesterday: 52 °F (at 1:30 PM)
Minimum temperature yesterday: 43 °F (at 12:00 AM)
Average temperature yesterday: 47 °F

Past Weeks' High & Low Weather Summary

 TemperatureHumidityPressure
High52 °F (Feb 26, 1:30 PM)100% (Feb 12, 9:00 PM)30.77 "Hg (Feb 12, 9:00 PM)
Low28 °F (Feb 18, 4:00 AM)46% (Feb 18, 3:00 PM)29.39 "Hg (Feb 23, 4:00 AM)
Average41 °F88%29.95 "Hg
* Reported Feb 12 6:00 AM — Feb 27 6:30 AM, Rouen, Weather by CustomWeather, © 2015

Note: Actual official high and low records may vary slightly from our data, if they occured in-between our weather recording intervals... More about our weather records

Advertising

Rouen weather history for previous 24 hours

 ConditionsComfort  
Time TempWeatherWind HumidityBarometerVisibility
6:30 AM
Fri, Feb 27
36 °FClear.7 mph87%30.07 "HgN/A
6:00 AM37 °FClear.9 mph81%30.04 "HgN/A
5:30 AM37 °FClear.10 mph81%30.04 "HgN/A
4:30 AM39 °FPartly cloudy.10 mph81%30.01 "HgN/A
4:00 AM41 °FClear.13 mph70%30.01 "HgN/A
3:30 AM41 °FMostly cloudy.12 mph70%30.01 "HgN/A
3:00 AM41 °FMostly cloudy.12 mph81%29.98 "HgN/A
2:30 AM41 °FMostly cloudy.9 mph87%29.98 "HgN/A
2:00 AM41 °FOvercast.6 mph81%29.98 "HgN/A
1:30 AM41 °FClear.10 mph81%29.95 "HgN/A
1:00 AM41 °FClear.12 mph81%29.95 "HgN/A
12:30 AM41 °FClear.12 mph81%29.95 "HgN/A
12:00 AM41 °FPartly cloudy.17 mph81%29.95 "HgN/A
11:30 PM
Thu, Feb 26
43 °FLight rain. Passing clouds.14 mph93%29.95 "HgN/A
11:00 PM43 °FPartly cloudy.10 mph93%29.92 "HgN/A
10:30 PM45 °FMostly cloudy.9 mph87%29.92 "HgN/A
10:00 PM45 °FMostly cloudy.9 mph93%29.92 "HgN/A
9:30 PM45 °FDrizzle. Mostly cloudy.10 mph87%29.92 "Hg6 mi
9:00 PM45 °FDrizzle. Low clouds.13 mph93%29.92 "Hg5 mi
8:30 PM45 °FMostly cloudy.14 mph93%29.89 "HgN/A
8:00 PM46 °FDrizzle. Fog.18 mph93%29.89 "Hg3 mi
7:30 PM48 °FDrizzle. Fog.15 mph94%29.89 "Hg1 mi
7:00 PM48 °FLight rain. Fog.14 mph100%29.89 "Hg1 mi
6:30 PM50 °FLight rain. Mostly cloudy.14 mph94%29.86 "HgN/A
6:00 PM50 °FLight rain. Mostly cloudy.13 mph100%29.86 "HgN/A
5:30 PM52 °FRain. Fog.12 mph94%29.86 "Hg2 mi
5:00 PM52 °FLight rain. Fog.12 mph94%29.86 "Hg3 mi
4:30 PM52 °FLight rain. Fog.10 mph94%29.89 "Hg3 mi
4:00 PM52 °FLight rain. Fog.9 mph94%29.89 "Hg2 mi
3:30 PM52 °FDrizzle. Fog.10 mph94%29.89 "Hg2 mi
3:00 PM52 °FLight rain. Low clouds.9 mph94%29.89 "Hg6 mi
2:30 PM52 °FDrizzle. Fog.12 mph94%29.92 "Hg3 mi
2:00 PM52 °FLow clouds.9 mph94%29.92 "HgN/A
1:30 PM52 °FLow clouds.9 mph94%29.95 "HgN/A
1:00 PM50 °FLow clouds.8 mph94%29.95 "HgN/A
12:30 PM50 °FMostly cloudy.10 mph100%29.98 "HgN/A
12:00 PM50 °FLow clouds.12 mph100%29.98 "HgN/A
11:30 AM50 °FLow clouds.12 mph94%30.01 "HgN/A
11:00 AM50 °FLow clouds.10 mph94%30.01 "HgN/A
10:30 AM50 °FFog.9 mph94%30.01 "Hg2 mi
10:00 AM48 °FFog.9 mph100%30.01 "Hg1 mi
9:30 AM48 °FFog.8 mph94%30.04 "Hg1 mi
9:00 AM46 °FFog.7 mph100%30.04 "Hg0 mi
8:30 AM46 °FFog.7 mph100%30.04 "Hg1 mi
8:00 AM46 °FFog.6 mph100%30.04 "Hg1 mi
7:30 AM46 °FFog.7 mph100%30.04 "Hg1 mi
Weather by CustomWeather, © 2015

See weather overviewHow to use our weather pages